Weather History for LIBH - November, 2013

Change the Weather History Date:

Thursday, November 21, 2013

  Actual Average Record
Temperature  
Mean Temperature 56 °F -  
Max Temperature 62 °F - - ()
Min Temperature 50 °F - - ()
Degree Days  
Heating Degree Days 9    
Growing Degree Days 6 (Base 50)    
Moisture  
Dew Point 51 °F    
Average Humidity 82    
Maximum Humidity 94    
Minimum Humidity 63    
Precipitation  
Precipitation 0.00 in - - ()
Sea Level Pressure  
Sea Level Pressure 29.66 in    
Wind  
Wind Speed 6 mph ()    
Max Wind Speed 12 mph    
Max Gust Speed -    
Visibility 6.6 miles    
Events      
T = Trace of Precipitation, MM = Missing Value Source: Averaged Metar Reports

Daily Weather History Graph

Daily Weather History Graph

Search for Another Location

Airport or City:

Trip Planner

Search our weather history database for the weather conditions in past years. The results will help you decide how hot, cold, wet, or windy it might be!

Date:

Astronomy

Nov. 21, 2013 Rise Set
Actual Time 6:45 AM CET 4:30 PM CET
Civil Twilight 6:15 AM CET 5:00 PM CET
Nautical Twilight 5:42 AM CET 5:33 PM CET
Astronomical Twilight 5:10 AM CET 6:06 PM CET
Moon 7:51 PM CET (11/21) 9:40 AM CET (11/21)
Length of Visible Light 10h 44m
Length of Day
9h 45m
Waning Gibbous, 87% of the Moon is Illuminated
Nov 21
Waning Gibbous
Nov 25
Last Quarter
Dec 3
New
Dec 9
First Quarter
Dec 17
Full

Hourly Weather History & Observations

Time (CET) Temp. Dew Point Humidity Pressure Visibility Wind Dir Wind Speed Gust Speed Precip Events Conditions
12:55 AM 55.4 °F 51.8 °F 88% 29.71 in 6.2 mi SW 6.9 mph - N/A   Scattered Clouds
1:00 AM 56 °F 52 °F 83% 29.72 in 6 mi SW 6.9 mph - -   Partly Cloudy
1:55 AM 57.2 °F 51.8 °F 82% 29.71 in 6.2 mi SW 8.1 mph - N/A   Scattered Clouds
2:55 AM 57.2 °F 53.6 °F 88% 29.68 in 6.2 mi SSW 5.8 mph - N/A   Scattered Clouds
3:55 AM 55.4 °F 53.6 °F 94% 29.68 in 6.2 mi SW 6.9 mph - N/A   Scattered Clouds
4:55 AM 55.4 °F 53.6 °F 94% 29.65 in 6.2 mi WSW 5.8 mph - N/A   Partly Cloudy
5:55 AM 55.4 °F 53.6 °F 94% 29.65 in 6.2 mi West 5.8 mph - N/A   Partly Cloudy
6:55 AM 53.6 °F 51.8 °F 94% 29.65 in 6.2 mi West 5.8 mph - N/A   Scattered Clouds
7:00 AM 54 °F 53 °F 94% 29.66 in 6 mi West 5.8 mph - -   Partly Cloudy
7:55 AM 55.4 °F 53.6 °F 94% 29.65 in 6.2 mi WNW 4.6 mph - N/A   Mostly Cloudy
8:55 AM 55.4 °F 53.6 °F 94% 29.65 in 6.2 mi WNW 8.1 mph - N/A   Mostly Cloudy
9:55 AM 59.0 °F 53.6 °F 82% 29.65 in 6.2 mi NW 8.1 mph - N/A   Mostly Cloudy
10:55 AM 62.6 °F 50.0 °F 63% 29.65 in 6.2 mi WNW 9.2 mph - N/A   Partly Cloudy
11:55 AM 60.8 °F 53.6 °F 77% 29.65 in 6.2 mi NW 9.2 mph - N/A   Partly Cloudy
12:55 PM 60.8 °F 55.4 °F 82% 29.65 in 6.2 mi West 11.5 mph - N/A   Mostly Cloudy
1:00 PM 60 °F 54 °F 76% 29.66 in 12 mi West 11.5 mph - -   Mostly Cloudy
1:55 PM 60.8 °F 51.8 °F 72% 29.65 in 6.2 mi West 11.5 mph - N/A   Mostly Cloudy
2:55 PM 60.8 °F 50.0 °F 68% 29.65 in 6.2 mi West 5.8 mph - N/A   Scattered Clouds
3:55 PM 59.0 °F 50.0 °F 72% 29.65 in 6.2 mi SW 8.1 mph - N/A   Scattered Clouds
4:55 PM 57.2 °F 50.0 °F 77% 29.65 in 6.2 mi WNW 5.8 mph - N/A   Scattered Clouds
5:55 PM 55.4 °F 48.2 °F 77% 29.65 in 6.2 mi WNW 6.9 mph - N/A   Scattered Clouds
6:55 PM 55.4 °F 46.4 °F 72% 29.65 in 6.2 mi WNW 4.6 mph - N/A   Scattered Clouds
7:00 PM 55 °F 46 °F 64% 29.68 in 12 mi WNW 4.6 mph - -   Partly Cloudy
7:55 PM 53.6 °F 44.6 °F 72% 29.65 in 6.2 mi WNW 4.6 mph - N/A   Partly Cloudy
8:55 PM 51.8 °F 44.6 °F 76% 29.68 in 6.2 mi Calm Calm - N/A   Partly Cloudy
9:55 PM 51.8 °F 46.4 °F 82% 29.65 in - Calm Calm - N/A   Clear
10:55 PM 50.0 °F 46.4 °F 87% 29.65 in - Calm Calm - N/A   Clear
11:55 PM 50.0 °F 46.4 °F 87% 29.65 in - Calm Calm - N/A   Clear